Location: El Portezuelo
(28.4984°N, 16.3589°W)
Time: 16:53:18
(UTC+00:00)

PAYLOAD B - Pass Details

Date: 20 January 2020
Orbit: 850 x 871 km, 99.1° (Epoch: 19 February)

Event Time Altitude Azimuth Distance (km) Brightness Sun altitude
Rises 06:23:13 0° 13° (NNE) 3,460 7.4 -20.7°
Reaches altitude 10° 06:25:36 10° 14° (NNE) 2,520 6.7 -20.2°
Maximum altitude 06:31:13 86° 103° (ESE) 876 4.2 -19.0°
Drops below altitude 10° 06:36:48 10° 193° (SSW) 2,504 6.7 -17.8°
Sets 06:39:10 0° 193° (SSW) 3,437 7.4 -17.3°
